Location: GMARS
(34.2910°N, 116.3838°W)
Time: 10:19:41
(UTC-08:00)

Daily predictions for brighter satellites

Satellite Brightness Start Highest point End
(mag) Time Altitude Azimuth Time Altitude Azimuth Time Altitude Azimuth
Abrixas rocket 2.7 17:52:54 10° NW 17:55:54 38° NNE 17:58:53 10° ESE
Cosmos 1867 3.9 17:52:06 10° NNW 17:57:33 74° WSW 18:02:57 10° SSE
Cosmos 1371 Rocket 4.2 17:54:21 10° N 17:59:29 51° ENE 18:04:38 10° SSE
Cosmos 2285 Rocket 4.0 17:53:22 10° S 17:59:39 78° ESE 18:06:02 10° NNE
COSMO-SKYMED 1 3.1 18:00:42 10° N 18:04:59 63° WNW 18:09:15 10° SSW
SeaSat 1 3.9 18:02:08 10° E 18:05:23 18° NE 18:08:37 10° NNE
DELTA 2 R/B (1) 3.8 18:02:32 10° WNW 18:08:03 71° SSW 18:13:35 10° ESE
ATLAS 2A CENTAUR R/B 4.5 17:53:09 10° W 18:08:28 40° SSW 18:14:37 10° SE
MOS 1-B Rocket 4.1 18:04:05 10° SSE 18:10:55 81° ENE 18:16:53 10° N
USA 215 3.3 18:05:53 10° NE 18:12:26 81° SE 18:18:58 10° SW
GPS 2-04 Rocket1 3.8 18:09:50 10° W 18:13:22 37° SSW 18:16:45 10° SE
Cosmos 2219 Rocket 2.2 18:08:39 10° NNW 18:14:21 89° WSW 18:19:59 10° SSE
NOSS 3-2 (C) 3.4 18:09:15 10° SSW 18:15:04 89° ESE 18:21:28 10° NNE
H-2A R/B 3.0 18:15:45 10° SSE 18:19:31 48° ENE 18:23:18 10° N
SPOT 3 Rocket 3.5 18:14:51 10° SSE 18:20:00 74° ENE 18:25:12 10° N
Cosmos 2227 Rocket 2.2 18:15:10 10° SSW 18:20:49 90° W 18:26:30 10° NNE
SL-8 R/B 3.7 18:17:40 10° SW 18:22:24 68° SE 18:26:31 14° ENE
OAO 2 Rocket 4.0 18:20:57 10° SW 18:25:28 37° SSE 18:28:42 17° E
Cosmos 2237 Rocket 2.3 18:20:04 10° NNW 18:25:34 55° ENE 18:31:03 10° SE
SL-16 R/B 3.3 18:22:38 10° N 18:27:01 22° ENE 18:29:36 17° E
Cosmos 2056 Rocket 3.5 18:23:35 10° NNW 18:29:01 78° ENE 18:34:26 10° SSE
NOAA 12 4.4 18:24:45 10° S 18:30:00 71° WSW 18:35:19 10° NNW
CZ-2D R/B 4.4 18:28:45 17° ESE 18:30:22 22° ENE 18:33:25 10° NNE
ORS 1 (USA 231) 4.5 18:30:26 10° NW 18:32:44 41° NNE 18:33:17 34° NE
Cosmos 405 2.8 18:29:16 10° S 18:32:44 85° E 18:36:15 10° N
Cosmos 1674 Rocket 3.7 18:30:01 10° N 18:34:12 47° E 18:38:21 10° SSE
Cosmos 2297 Rocket 2.3 18:29:40 10° SSW 18:35:18 79° WNW 18:40:59 10° NNE
Cosmos 1452 Rocket 4.2 18:30:42 10° N 18:35:24 32° ENE 18:39:16 14° SE
Cosmos 1908 Rocket 4.0 18:31:57 10° SSE 18:36:07 40° E 18:40:19 10° NNE
Shenzhou-11 Module 2.2 18:38:04 10° NW 18:41:00 52° NNE 18:41:45 39° ENE
Cosmos 1812 2.7 18:39:40 10° N 18:43:30 57° E 18:47:17 10° SSE
Resurs 01 Rocket 3.5 18:47:32 14° NE 18:47:32 14° NE 18:48:35 10° NNE
Cosmos 1733 Rocket 3.8 18:41:27 10° SSW 18:45:40 55° W 18:49:55 10° N
Geosat 4.1 18:42:58 10° NE 18:47:52 51° ESE 18:52:43 10° S
CZ-3C R/B 3.7 18:46:30 10° S 18:49:48 18° SE 18:52:34 16° ESE
Meteor 1-25 Rocket 4.1 18:44:39 10° S 18:50:09 72° E 18:55:41 10° NNE
CENTAUR R/B 2.4 18:45:01 10° SSW 18:50:45 65° ESE 18:57:09 10° NE
BREEZE-M DEB (TANK) 3.3 18:50:38 10° SSW 18:53:09 39° ESE 18:53:46 36° E
ERS-2 2.2 18:49:40 10° S 18:53:21 79° WSW 18:57:02 10° NNW
Tiangong 2 2.7 18:51:02 10° NW 18:53:39 23° NNE 18:53:40 23° NNE
Cosmos 2333 Rocket 3.4 18:51:05 10° NW 18:56:25 43° WSW 19:01:41 10° S
FREGAT/IRIS 2.9 18:53:35 10° S 18:56:29 63° W 18:59:26 10° NNW
Cosmos 1420 Rocket 4.3 18:53:59 10° N 18:58:59 42° ENE 19:00:39 33° ESE
Cosmos 158 Rocket 3.7 18:55:19 10° SSW 19:00:14 86° ESE 19:05:08 10° NNE
Cosmos 2082 4.5 18:55:37 10° SW 19:01:03 52° WNW 19:06:33 10° N
Cosmos 44 Rocket 4.4 18:57:56 10° N 19:01:50 27° NE 19:01:50 27° NE
Cosmos 1513 Rocket 4.4 18:57:02 10° N 19:03:21 62° E 19:09:30 10° SSE
Iridium 4 Rocket 3.1 18:58:25 10° N 19:03:21 71° E 19:07:49 10° S
Okean 3 3.4 19:02:11 10° N 19:06:22 85° W 19:10:32 10° S
Tsikada Rocket 4.1 19:03:27 10° SSE 19:09:35 52° E 19:15:46 10° NNE
Cosmos 1633 3.3 19:08:14 10° SSW 19:11:42 52° W 19:15:11 10° N
Thor Agena Rocket 3.7 19:12:58 10° N 19:18:02 71° WNW 19:23:02 10° SSW
Sich 1 Rocket 3.7 19:16:49 10° S 19:21:19 76° W 19:25:49 10° N
Lacrosse 5 2.2 19:18:18 10° NW 19:23:17 63° SW 19:25:19 34° SSE
USA 32 4.1 19:18:35 10° S 19:23:48 79° W 19:29:03 10° N
SJ-6B 3.3 19:20:55 14° S 19:24:01 54° W 19:27:44 10° NNW
Envisat 2.9 19:23:34 10° SSE 19:28:38 84° WSW 19:33:44 10° NNW
Cosmos 1269 Rocket 3.8 19:24:28 10° SSW 19:29:44 81° ESE 19:30:51 57° NNE
Cosmos 1782 Rocket 3.7 19:28:56 10° S 19:33:22 74° W 19:33:40 70° NW
Cosmos 1378 Rocket 4.2 19:30:16 10° NNW 19:34:34 55° W 19:38:52 10° S
Cosmos 1464 Rocket 4.4 19:29:20 10° NNW 19:35:21 62° W 19:41:22 10° S
SeaSat 1 3.0 19:40:28 33° S 19:42:28 55° WSW 19:47:18 10° NW
Cosmos 44 3.7 19:41:02 10° NNW 19:45:16 63° NNW 19:45:16 63° NNW
SL-16 R/B 3.1 20:05:57 10° NW 20:11:17 44° WSW 20:11:35 43° WSW
Resurs 01 Rocket 4.4 20:25:06 13° NW 20:25:06 13° NW 20:25:39 10° NW
USA 267 4.1 20:27:51 40° NNW 20:27:51 40° NNW 20:31:57 10° NW
